GW5800 Weather Reports


time (UTC)temp
F
wind
direction
speed
knots
gust
knots
rain 1hr
in
rain 24hr
in
rain mn
in
humidity
%
barometer
mb
20260504014303 51 123 2.6 2.6 0.00 0.00 0.00 56 1013.1
20260504013801 51 109 1.7 2.6 0.00 0.00 0.00 54 1012.9
20260504013259 51 99 1.7 2.6 0.00 0.00 0.00 55 1013.1
20260504012754 51 145 1.7 1.7 0.00 0.00 0.00 54 1012.9
20260504012253 52 127 2.6 2.6 0.00 0.00 0.00 53 1012.8
20260504011749 52 125 1.7 2.6 0.00 0.00 0.00 52 1012.8
20260504011246 52 124 1.7 1.7 0.00 0.00 0.00 52 1013.0
20260504010742 53 129 1.7 1.7 0.00 0.00 0.00 52 1012.8
20260504010238 53 145 1.7 2.6 0.00 0.00 0.00 51 1012.8
20260504005735 53 140 0.9 2.6 0.00 0.00 0.00 49 1012.9
20260504005232 54 137 0.9 1.7 0.00 0.00 0.00 47 1012.9
20260504004729 54 150 0.0 2.6 0.00 0.00 0.00 48 1012.7
20260504004226 55 136 1.7 2.6 0.00 0.00 0.00 47 1012.8
20260504003723 55 134 0.9 1.7 0.00 0.00 0.00 45 1012.8
20260504003220 56 161 0.9 2.6 0.00 0.00 0.00 44 1012.9
20260504002717 56 169 1.7 8.7 0.00 0.00 0.00 43 1013.0
20260504002214 56 133 1.7 6.1 0.00 0.00 0.00 43 1012.9
20260504001712 56 257 3.5 3.5 0.00 0.00 0.00 42 1012.8
20260504001208 57 218 0.9 2.6 0.00 0.00 0.00 44 1012.9
20260504000705 57 201 0.0 2.6 0.00 0.00 0.00 43 1012.7
20260504000204 57 140 5.2 13.9 0.00 0.00 0.00 41 1012.9
20260503235700 57 116 2.6 3.5 0.00 0.00 0.00 42 1012.8
20260503235157 57 62 0.9 1.7 0.00 0.00 0.00 44 1012.8
20260503234655 57 185 1.7 2.6 0.00 0.00 0.00 42 1012.9
20260503234153 57 208 2.6 7.0 0.00 0.00 0.00 43 1012.8
20260503233649 57 174 1.7 2.6 0.00 0.00 0.00 42 1012.9
20260503233145 57 192 0.0 4.3 0.00 0.00 0.00 43 1013.0
20260503232642 58 120 2.6 5.2 0.00 0.00 0.00 41 1013.0
20260503232139 58 216 0.9 2.6 0.00 0.00 0.00 40 1013.0
20260503231638 58 218 1.7 6.1 0.00 0.00 0.00 40 1013.0
20260503231133 58 263 1.7 5.2 0.00 0.00 0.00 40 1013.0
20260503230630 58 180 1.7 2.6 0.00 0.00 0.00 42 1013.1
20260503230128 58 272 3.5 5.2 0.00 0.00 0.00 39 1013.1
20260503225625 58 123 0.9 4.3 0.00 0.00 0.00 40 1013.0
20260503225124 58 248 3.5 5.2 0.00 0.00 0.00 40 1013.1
20260503224622 58 294 1.7 7.8 0.00 0.00 0.00 41 1013.3
20260503224120 58 165 4.3 4.3 0.00 0.00 0.00 41 1013.2
20260503223618 58 211 4.3 7.0 0.00 0.00 0.00 41 1013.1
20260503223113 59 131 1.7 5.2 0.00 0.00 0.00 39 1013.4
20260503222611 59 132 0.9 7.8 0.00 0.00 0.00 40 1013.0
20260503222109 59 276 3.5 5.2 0.00 0.00 0.00 39 1013.1
20260503221607 59 223 3.5 7.8 0.00 0.00 0.00 40 1013.2
20260503221104 59 189 1.7 5.2 0.00 0.00 0.00 39 1013.3
20260503220600 59 179 0.0 7.0 0.00 0.00 0.00 39 1013.2
20260503220058 59 177 0.9 4.3 0.00 0.00 0.00 40 1013.1
20260503215555 59 266 3.5 7.0 0.00 0.00 0.00 40 1013.4
20260503215051 59 266 6.1 6.1 0.00 0.00 0.00 39 1013.2
20260503214549 59 260 2.6 6.1 0.00 0.00 0.00 38 1013.2
20260503214046 59 235 4.3 5.2 0.00 0.00 0.00 39 1013.1
20260503213544 59 247 4.3 7.0 0.00 0.00 0.00 37 1013.2
20260503213041 59 238 3.5 4.3 0.00 0.00 0.00 38 1013.0
20260503212538 59 261 1.7 5.2 0.00 0.00 0.00 40 1013.2
20260503212036 60 186 1.7 5.2 0.00 0.00 0.00 39 1013.1
20260503211532 61 250 3.5 5.2 0.00 0.00 0.00 38 1012.9
20260503211028 60 237 5.2 12.2 0.00 0.00 0.00 38 1013.1
20260503210525 61 186 1.7 9.6 0.00 0.00 0.00 37 1012.9
20260503210021 61 241 4.3 6.1 0.00 0.00 0.00 38 1013.1
20260503205518 61 232 6.1 7.8 0.00 0.00 0.00 36 1013.1
20260503205014 60 154 5.2 7.0 0.00 0.00 0.00 37 1013.1
20260503204511 60 131 5.2 5.2 0.00 0.00 0.00 38 1013.1
20260503204008 60 210 1.7 7.0 0.00 0.00 0.00 36 1013.2
20260503203505 60 359 1.7 3.5 0.00 0.00 0.00 37 1013.2
20260503203001 61 202 2.6 4.3 0.00 0.00 0.00 38 1013.2
20260503202500 60 256 0.9 7.8 0.00 0.00 0.00 36 1013.2
20260503201958 60 282 1.7 4.3 0.00 0.00 0.00 38 1013.4
20260503201455 59 298 2.6 5.2 0.00 0.00 0.00 36 1013.7
20260503200952 60 217 3.5 7.0 0.00 0.00 0.00 38 1013.7
20260503200449 61 173 1.7 6.1 0.00 0.00 0.00 38 1013.6
20260503195945 61 252 3.5 7.8 0.00 0.00 0.00 35 1013.5
20260503195443 61 245 2.6 9.6 0.00 0.00 0.00 34 1013.7
20260503194939 62 235 5.2 5.2 0.00 0.00 0.00 36 1013.8
20260503194437 61 220 6.1 10.4 0.00 0.00 0.00 35 1013.9
20260503193931 60 238 4.3 4.3 0.00 0.00 0.00 36 1013.9
20260503193427 60 198 2.6 7.0 0.00 0.00 0.00 36 1014.0
20260503192923 60 243 0.9 5.2 0.00 0.00 0.00 36 1014.0
20260503192420 61 311 1.7 4.3 0.00 0.00 0.00 38 1014.1
20260503191915 61 221 2.6 7.0 0.00 0.00 0.00 36 1014.1
20260503191413 60 277 3.5 5.2 0.00 0.00 0.00 38 1014.3
20260503190909 60 322 1.7 7.8 0.00 0.00 0.00 38 1014.4
20260503190407 61 253 5.2 6.1 0.00 0.00 0.00 35 1014.6
20260503185903 62 257 3.5 7.8 0.00 0.00 0.00 35 1014.6
20260503185400 62 238 3.5 5.2 0.00 0.00 0.00 39 1014.6
20260503184859 62 288 3.5 6.1 0.00 0.00 0.00 36 1014.6
20260503184356 61 324 2.6 8.7 0.00 0.00 0.00 37 1014.5
20260503183852 60 244 5.2 8.7 0.00 0.00 0.00 37 1014.6
20260503183349 60 322 2.6 3.5 0.00 0.00 0.00 38 1015.1
20260503182846 61 284 4.3 7.0 0.00 0.00 0.00 36 1015.0
20260503182345 61 272 4.3 6.1 0.00 0.00 0.00 37 1015.1
20260503181842 61 298 2.6 7.0 0.00 0.00 0.00 34 1015.0
20260503181339 59 253 3.5 5.2 0.00 0.00 0.00 39 1015.1
20260503180836 60 188 0.0 8.7 0.00 0.00 0.00 37 1015.1
20260503180334 60 244 2.6 10.4 0.00 0.00 0.00 36 1015.1
20260503175830 60 194 4.3 7.0 0.00 0.00 0.00 38 1015.2
20260503175328 60 180 1.7 5.2 0.00 0.00 0.00 39 1015.0
20260503174823 59 250 7.0 7.8 0.00 0.00 0.00 42 1015.3
20260503174322 59 258 4.3 7.0 0.00 0.00 0.00 42 1015.1
20260503173817 59 168 9.6 14.8 0.00 0.00 0.00 38 1015.4
20260503173313 59 197 2.6 9.6 0.00 0.00 0.00 39 1015.6
20260503172810 58 249 5.2 10.4 0.00 0.00 0.00 39 1015.7
20260503172308 59 259 7.8 8.7 0.00 0.00 0.00 40 1015.7
20260503171803 58 302 3.5 5.2 0.00 0.00 0.00 40 1015.7
20260503171300 58 176 5.2 11.3 0.00 0.00 0.00 39 1016.1
20260503170758 59 265 3.5 7.8 0.00 0.00 0.00 40 1016.0
20260503170254 59 200 2.6 8.7 0.00 0.00 0.00 41 1015.9
20260503160217 56 305 3.5 9.6 0.00 0.00 0.00 44 1016.4
20260503150647 54 144 3.5 6.1 0.00 0.00 0.00 41 1017.0
20260503150143 53 230 3.5 6.1 0.00 0.00 0.00 40 1016.9
20260503140107 51 249 1.7 3.5 0.00 0.00 0.00 47 1017.0
20260503131036 46 168 1.7 4.3 0.00 0.00 0.00 56 1017.3
20260503130533 46 202 1.7 7.8 0.00 0.00 0.00 55 1017.2
20260503110424 35 112 2.6 2.6 0.00 0.02 0.02 85 1016.9
20260503090321 35 106 1.7 2.6 0.00 0.02 0.02 86 1016.4
20260503081248 33 98 1.7 2.6 0.00 0.02 0.02 96 1016.4
20260503080744 32 89 1.7 2.6 0.00 0.02 0.02 96 1016.5
20260503080242 32 101 1.7 1.7 0.00 0.02 0.02 96 1016.4
20260503072718 32 115 1.7 3.5 0.00 0.02 0.02 95 1016.5
20260503072215 32 107 2.6 2.6 0.00 0.02 0.02 95 1016.5
20260503071711 32 86 0.9 1.7 0.00 0.02 0.02 95 1016.5
20260503071208 33 86 1.7 1.7 0.00 0.02 0.02 95 1016.5
20260503070705 33 107 1.7 1.7 0.00 0.02 0.02 94 1016.5
20260503070203 33 108 2.6 2.6 0.00 0.02 0.02 94 1016.4
20260503060127 34 110 1.7 1.7 0.00 0.02 0.02 92 1016.7
20260503055119 35 118 1.7 2.6 0.00 0.02 0.02 92 1016.9
20260503054615 35 112 2.6 2.6 0.00 0.02 0.02 91 1017.0
20260503054112 35 124 1.7 2.6 0.00 0.02 0.02 91 1016.8
20260503053610 35 117 1.7 2.6 0.00 0.02 0.02 91 1017.0
20260503053108 36 120 1.7 1.7 0.00 0.02 0.02 91 1016.9
20260503052604 36 117 1.7 2.6 0.00 0.02 0.02 90 1016.9
20260503052100 36 113 1.7 2.6 0.00 0.02 0.02 90 1016.9
20260503051556 37 106 1.7 2.6 0.00 0.02 0.02 89 1017.1
20260503051054 37 92 1.7 2.6 0.00 0.02 0.02 89 1017.0
20260503050549 37 106 1.7 2.6 0.00 0.02 0.02 89 1017.1
20260503050047 38 106 1.7 2.6 0.00 0.02 0.02 89 1017.2
20260503045544 38 109 2.6 2.6 0.00 0.02 0.02 89 1017.1
20260503045041 38 102 1.7 2.6 0.00 0.02 0.02 89 1017.2
20260503044538 38 114 2.6 2.6 0.00 0.02 0.02 88 1017.1
20260503044036 38 120 1.7 2.6 0.00 0.02 0.02 89 1017.1
20260503043531 38 117 1.7 2.6 0.00 0.02 0.02 88 1017.2
20260503043028 38 117 1.7 2.6 0.00 0.02 0.02 88 1017.0
20260503042525 38 117 1.7 2.6 0.00 0.02 0.02 88 1017.1
20260503042021 38 99 1.7 2.6 0.00 0.02 0.02 88 1017.3
20260503041518 38 110 1.7 2.6 0.00 0.02 0.02 87 1017.0
20260503041016 38 116 1.7 2.6 0.00 0.02 0.02 87 1017.1
20260503040513 38 118 1.7 2.6 0.00 0.02 0.02 87 1017.2
20260503040011 38 110 1.7 3.5 0.00 0.02 0.02 87 1017.2
20260503035507 38 103 1.7 2.6 0.00 0.02 0.02 87 1017.1
20260503035005 38 101 2.6 3.5 0.00 0.02 0.02 87 1017.2
20260503034502 38 104 2.6 2.6 0.00 0.02 0.02 87 1017.2
20260503033959 38 104 1.7 2.6 0.00 0.02 0.02 87 1017.3
20260503033456 38 114 1.7 2.6 0.00 0.02 0.02 87 1017.3
20260503032954 38 103 1.7 2.6 0.00 0.02 0.02 87 1017.1
20260503032452 38 89 2.6 2.6 0.00 0.02 0.02 86 1017.3
20260503031949 38 86 1.7 2.6 0.00 0.02 0.02 86 1017.4
20260503031447 38 87 1.7 1.7 0.00 0.02 0.02 86 1017.3
20260503030943 38 87 1.7 2.6 0.00 0.02 0.02 86 1017.3
20260503030440 38 98 1.7 2.6 0.00 0.02 0.02 85 1017.4
20260503025937 38 109 1.7 1.7 0.00 0.02 0.02 85 1017.4
20260503025434 38 102 1.7 2.6 0.00 0.02 0.02 85 1017.4
20260503024932 38 103 1.7 2.6 0.00 0.02 0.02 84 1017.6
20260503024428 38 93 1.7 2.6 0.00 0.02 0.02 84 1017.6
20260503023925 38 95 1.7 2.6 0.00 0.02 0.02 84 1017.7
20260503023422 38 105 1.7 1.7 0.00 0.02 0.02 83 1017.7
20260503022919 38 103 1.7 1.7 0.00 0.02 0.02 83 1017.7
20260503022420 38 92 1.7 1.7 0.00 0.02 0.02 83 1017.7
20260503021915 38 95 1.7 1.7 0.00 0.02 0.02 83 1017.6
20260503021412 38 116 2.6 2.6 0.00 0.02 0.02 82 1017.8
20260503020909 38 101 1.7 1.7 0.00 0.02 0.02 81 1017.7
20260503020407 38 106 1.7 1.7 0.00 0.02 0.02 80 1017.7
20260503015903 39 103 1.7 1.7 0.00 0.02 0.02 80 1017.6
20260503015400 39 93 1.7 2.6 0.00 0.02 0.02 79 1017.8
20260503014856 39 111 2.6 2.6 0.00 0.02 0.02 79 1017.4